Salina, KS

4:56 PM CDT on August 19, 2017 (GMT -0500)
Salina Municipal

Weather History for KSLN - November, 2012

Change the Weather History Date:

Friday, November 23, 2012

  Actual Average Record
Temperature  
Mean Temperature 32 °F 40 °F  
Max Temperature 43 °F 51 °F 73 °F (2005)
Min Temperature 21 °F 29 °F -4 °F (1898)
Degree Days  
Heating Degree Days 33 25  
Month to date heating degree days 345 445  
Since 1 July heating degree days 677 763  
Cooling Degree Days 0 0  
Month to date cooling degree days 0 0  
Year to date cooling degree days 2051 1646  
Moisture  
Dew Point 17 °F    
Average Humidity 51    
Maximum Humidity 68    
Minimum Humidity 33    
Precipitation  
Precipitation T in 0.03 in 0.19 in (1973)
Month to date precipitation 0.32 0.99  
Year to date precipitation 17.90 30.30  
Sea Level Pressure  
Sea Level Pressure 30.51 in    
Wind  
Wind Speed 12 mph (NW)    
Max Wind Speed 26 mph    
Max Gust Speed 31 mph    
Visibility 10 miles    
Events      
T = Trace of Precipitation, MM = Missing Value Source: NWS Daily Summary

Daily Weather History Graph

Daily Weather History Graph

Search for Another Location

Airport or City:

Trip Planner

Search our weather history database for the weather conditions in past years. The results will help you decide how hot, cold, wet, or windy it might be!

Date:

Astronomy

Nov. 23, 2012 Rise Set
Actual Time 7:22 AM CST 5:11 PM CST
Civil Twilight 6:53 AM CST 5:40 PM CST
Nautical Twilight 6:20 AM CST 6:13 PM CST
Astronomical Twilight 5:48 AM CST 6:45 PM CST
Moon 2:25 PM CST (11/23) 2:44 AM CST (11/23)
Length of Visible Light 10h 47m
Length of Day
9h 49m
Waxing Gibbous, 80% of the Moon is Illuminated
Nov 23
Waxing Gibbous
Nov 28
Full
Dec 6
Last Quarter
Dec 13
New
Dec 19
First Quarter

Hourly Weather History & Observations

Time (CST) Temp. Windchill Dew Point Humidity Pressure Visibility Wind Dir Wind Speed Gust Speed Precip Events Conditions
12:53 AM 37.9 °F 31.5 °F 26.1 °F 62% 30.38 in 10.0 mi NW 9.2 mph - N/A   Clear
1:53 AM 37.0 °F 30.4 °F 25.0 °F 62% 30.40 in 10.0 mi WNW 9.2 mph - N/A   Clear
2:53 AM 36.0 °F 27.5 °F 25.0 °F 64% 30.43 in 10.0 mi NW 12.7 mph - N/A   Clear
3:53 AM 37.9 °F 28.9 °F 23.0 °F 55% 30.45 in 10.0 mi NW 16.1 mph - N/A   Clear
4:53 AM 36.0 °F 27.1 °F 23.0 °F 59% 30.48 in 10.0 mi NNW 13.8 mph - N/A   Clear
6:53 AM 33.1 °F 22.2 °F 19.0 °F 56% 30.53 in 9.0 mi NNW 17.3 mph 26.5 mph 0.00 in   Clear
7:53 AM 30.9 °F 19.1 °F 14.0 °F 50% 30.57 in 10.0 mi NNW 18.4 mph - N/A   Clear
8:53 AM 32.0 °F 19.2 °F 12.9 °F 45% 30.59 in 9.0 mi NNW 23.0 mph 27.6 mph 0.00 in   Clear
9:53 AM 33.1 °F 21.2 °F 12.9 °F 43% 30.60 in 10.0 mi NNW 20.7 mph - N/A   Clear
10:53 AM 35.1 °F 24.1 °F 12.9 °F 40% 30.62 in 9.0 mi NNW 19.6 mph - N/A   Clear
11:53 AM 37.0 °F 27.4 °F 14.0 °F 39% 30.60 in 10.0 mi North 17.3 mph 23.0 mph N/A   Clear
12:53 PM 39.0 °F 29.9 °F 14.0 °F 36% 30.57 in 10.0 mi NNW 17.3 mph - N/A   Clear
1:53 PM 41.0 °F 32.8 °F 15.1 °F 35% 30.55 in 10.0 mi NNW 16.1 mph - N/A   Clear
2:53 PM 42.1 °F 34.9 °F 15.1 °F 34% 30.53 in 10.0 mi NNW 13.8 mph - N/A   Clear
3:53 PM 42.1 °F 36.1 °F 15.1 °F 34% 30.52 in 10.0 mi NNW 10.4 mph - N/A   Clear
4:53 PM 39.0 °F 34.0 °F 16.0 °F 39% 30.51 in 10.0 mi NW 6.9 mph - N/A   Clear
5:53 PM 35.1 °F 31.0 °F 15.1 °F 44% 30.51 in 10.0 mi West 4.6 mph - N/A   Clear
6:53 PM 33.1 °F 28.7 °F 14.0 °F 46% 30.51 in 10.0 mi WNW 4.6 mph - N/A   Clear
7:53 PM 32.0 °F - 14.0 °F 48% 30.51 in 10.0 mi Calm Calm - N/A   Clear
8:53 PM 27.0 °F 21.6 °F 14.0 °F 58% 30.50 in 10.0 mi SSW 4.6 mph - N/A   Clear
9:53 PM 26.1 °F 21.9 °F 14.0 °F 60% 30.48 in 10.0 mi SE 3.5 mph - N/A   Clear
10:53 PM 24.1 °F 18.2 °F 15.1 °F 69% 30.47 in 10.0 mi SSW 4.6 mph - N/A   Clear
11:53 PM 24.1 °F 16.0 °F 15.1 °F 69% 30.45 in 10.0 mi SSW 6.9 mph - N/A   Clear